Meteo Giornale » Osservazioni meteo Gran Bretagna » Farnborough

ore: 22:50 - Osservazioni Meteo Farnborough
Lat. 51° 17' N Lon. 0° 46' W Alt. 65 metri s.l.m.

sereno

17 °C

Sereno

Temp. 24 Ore

9 °C

23 °C

Ovest/Sud-Ovest

7.4 Km/h

Dew point 12 °C

Umidità 72 %

Visibilità  10 Km

Il sole sorge alle ore 06:16

Il sole tramonta alle ore 19:49

Data e Ora Cielo e Fenomeni T °C DP °C Um. % Pres. hPa Vis. km Vento km/h
Oggi h: 22:50 sereno Sereno 17 12 72 1020 10 O/SO 7.4
Oggi h: 22:20 sereno Sereno 17 12 72 1020 10 O 9.3
Oggi h: 21:50 sereno Sereno 17 12 72 1020 10 O 9.3
Oggi h: 21:20 sereno Sereno 17 12 72 1020 10 O/SO 7.4
Oggi h: 20:50 sereno Sereno 17 12 72 1020 10 O/SO 9.3
Oggi h: 20:20 sereno Sereno 18 12 67 1020 10 O/SO 13
Oggi h: 19:50 sereno Sereno 19 12 63 1020 10 O/SO 16.7
Oggi h: 19:20 sereno Sereno 19 12 63 1020 10 SO 16.7
Oggi h: 18:50 sereno Sereno 20 12 59 1020 10 SO 16.7
Oggi h: 18:20 sereno Sereno 20 12 59 1020 10 SO 20.3
Oggi h: 17:50 poco_nuvoloso Poco Nuvoloso 21 10 49 1019 10 O/SO 18.5
Oggi h: 17:20 sereno Sereno 22 8 40 1019 10 O/SO 13
Oggi h: 16:50 sereno Sereno 22 8 40 1020 10 O/SO 13
Oggi h: 16:20 sereno Sereno 22 7 37 1020 10 O 16.7
Oggi h: 15:50 sereno Sereno 22 7 37 1020 10 O 14.8
Oggi h: 15:20 sereno Sereno 23 8 38 1020 10 SO 18.5
Oggi h: 14:50 sereno Sereno 21 8 43 1020 10 O/SO 14.8
Oggi h: 14:20 sereno Sereno 21 9 46 1020 10 O/SO 13
Oggi h: 13:50 poco_nuvoloso Poco Nuvoloso 22 9 43 1020 10 SO 20.3
Oggi h: 13:20 poco_nuvoloso Poco Nuvoloso 20 9 49 1021 10 O 13
Oggi h: 12:50 poco_nuvoloso Poco Nuvoloso 20 10 52 1021 10 O 16.7
Oggi h: 12:20 poco_nuvoloso Poco Nuvoloso 20 10 52 1021 10 SO 20.3
Oggi h: 11:50 nuvoloso Nuvoloso 19 10 55 1021 10 SO 22.2
Oggi h: 11:20 nuvoloso Nuvoloso 19 10 55 1021 10 O/SO 16.7
Oggi h: 10:50 poco_nuvoloso Poco Nuvoloso 19 9 52 1021 10 SO 16.7
Oggi h: 10:20 sereno Sereno 18 9 55 1021 10 O/SO 14.8
Oggi h: 09:50 sereno Sereno 17 10 63 1021 10 O 11.1
Oggi h: 09:20 sereno Sereno 16 10 67 1021 10 O/SO 11.1
Oggi h: 08:50 sereno Sereno 15 11 76 1021 10 O/SO 7.4
Oggi h: 08:20 sereno Sereno 13 11 87 1021 10 N 3.7
Oggi h: 07:50 sereno Sereno 12 11 93 1021 10 N 1.8
Oggi h: 07:20 sereno Sereno 11 10 93 1021 10 N 1.8
Oggi h: 06:50 sereno Sereno 10 10 100 1020 10 N 1.8
Oggi h: 06:20 sereno Sereno 10 9 93 1020 10 N 1.8
Oggi h: 05:50 sereno Sereno 9 9 100 1020 10 N 1.8
Oggi h: 05:20 sereno Sereno 9 9 100 1020 10 N 1.8
Oggi h: 04:50 sereno Sereno 10 9 93 1020 10 N 1.8
Oggi h: 04:20 sereno Sereno 10 9 93 1020 10 N 1.8
Oggi h: 03:50 sereno Sereno 11 9 87 1020 10 N 3.7
Oggi h: 03:20 sereno Sereno 11 9 87 1020 10 O/SO 7.4
Oggi h: 02:50 sereno Sereno 12 10 87 1020 10 N 5.5
Oggi h: 02:20 sereno Sereno 11 10 93 1020 10 O/SO 9.3
Oggi h: 01:50 sereno Sereno 12 10 87 1019 10 O 7.4
Oggi h: 01:20 sereno Sereno 13 11 87 1019 10 O 7.4
Oggi h: 00:50 sereno Sereno 14 11 82 1019 10 O 9.3
Oggi h: 00:20 sereno Sereno 15 11 76 1019 10 O 7.4
Ieri h: 23:50 poco_nuvoloso Poco Nuvoloso 15 11 76 1019 10 O/SO 7.4